GFSSGP_850_dewp_021.txt.gz
Dewpoint
13 13 14 15 13 11 14 13 12 13 14 14 14 13 15 15 13 15 14 14 14 15 15 15 14 14 15 15 15 15 13 13 13 13 11 8 7 7 7 8 7 7 9 10 10 10 10 10 10
14 14 15 17 12 13 14 12 13 12 14 15 15 15 15 15 16 15 15 15 14 14 15 15 15 15 15 15 15 14 13 12 12 10 8 8 8 7 7 8 6 8 10 10 10 10 10 10 10
14 14 17 12 12 14 14 13 13 13 15 14 15 15 15 16 16 16 15 15 16 15 15 14 14 14 14 14 14 14 12 10 10 9 8 8 8 7 8 8 8 10 9 10 10 10 11 10 11
14 16 14 10 12 13 13 12 14 14 15 15 13 14 15 16 16 14 15 16 15 15 15 14 14 14 14 14 14 10 9 9 8 8 8 8 8 9 9 8 9 9 9 10 10 10 10 10 10
14 13 9 12 13 13 12 12 13 14 15 14 14 15 15 16 13 14 15 15 15 15 14 14 14 14 13 14 12 9 9 9 8 8 7 7 8 9 9 9 8 9 9 10 10 9 9 9 10
13 10 10 10 13 13 12 12 14 15 15 15 14 14 16 14 13 14 15 16 14 14 15 14 14 13 11 9 10 9 8 8 8 7 7 8 9 9 8 7 8 10 11 11 9 12 11 11 11
11 9 10 12 13 13 13 13 14 15 15 14 14 14 17 16 12 12 13 14 15 15 15 14 15 14 11 9 9 10 9 8 7 8 9 9 8 8 8 9 11 12 11 11 11 13 13 12 13
9 7 11 12 11 11 12 14 15 14 14 15 14 14 16 16 11 11 12 14 15 14 16 15 15 11 10 11 11 11 11 10 10 9 9 9 8 9 12 12 11 12 13 13 13 13 14 13 13
9 7 11 12 12 10 13 13 15 15 15 14 15 15 15 16 11 13 14 15 14 13 14 13 9 10 11 11 10 10 11 11 10 10 10 9 10 11 11 13 14 14 13 13 13 13 13 13 14
9 7 8 8 10 10 13 13 14 14 13 14 16 16 14 15 13 14 15 15 15 13 12 12 11 9 11 11 10 10 10 10 9 10 9 9 11 14 13 14 14 13 13 13 13 13 13 14 13
8 7 6 7 9 10 12 13 13 13 13 14 16 16 16 16 15 14 14 14 13 12 12 12 12 11 10 9 10 11 11 11 9 9 9 10 12 14 14 14 14 14 14 14 14 14 14 13 14
6 8 6 7 9 11 12 13 12 12 12 13 15 16 16 16 16 15 14 11 11 11 11 11 11 12 11 10 10 10 10 10 9 9 10 13 13 14 14 14 14 14 14 14 14 13 13 14 14
2 5 7 8 9 10 11 12 11 11 14 15 15 16 16 16 16 16 15 14 12 11 11 11 11 12 11 11 10 10 10 10 10 10 13 14 14 14 14 13 14 14 14 14 13 14 13 13 13
3 6 9 9 10 11 10 12 11 12 15 15 16 15 15 16 16 16 15 13 12 11 11 11 12 12 11 11 11 11 10 11 13 13 14 13 14 14 14 13 13 14 14 14 15 14 14 14 13
7 9 10 9 10 10 10 13 12 12 14 15 15 15 15 16 16 15 12 13 12 12 12 12 12 12 12 13 13 13 13 13 14 14 14 15 14 14 14 14 13 13 14 14 13 14 14 14 14
8 8 9 10 9 10 9 11 11 14 14 14 14 15 15 16 16 16 13 13 13 12 12 12 12 13 12 14 14 14 14 14 15 14 14 13 13 14 12 13 13 14 14 14 14 14 12 11 12
8 8 9 11 9 10 11 11 10 13 14 14 14 14 15 16 16 16 15 14 13 12 13 13 13 13 13 13 14 14 15 15 15 15 14 15 15 14 14 14 14 15 14 14 11 9 8 5 5
8 9 9 11 10 10 11 11 12 14 14 14 15 14 15 16 16 16 14 14 14 13 12 13 13 13 13 13 13 14 15 15 15 15 15 14 14 14 14 14 14 14 14 11 11 11 6 4 5
5 7 8 10 10 10 11 11 12 14 14 14 15 15 15 15 15 16 14 15 14 15 14 13 14 13 14 13 13 14 14 15 15 15 15 14 14 14 14 14 14 13 12 11 11 7 4 12 8
7 7 8 9 10 9 10 11 11 12 14 14 14 15 15 15 16 16 16 15 15 14 14 14 14 14 14 14 13 14 14 15 16 16 15 14 14 14 15 15 13 12 11 11 8 3 8 5 7
6 7 9 8 9 10 10 11 11 12 12 13 13 13 13 14 15 15 15 15 14 14 14 14 13 14 14 13 13 14 14 15 16 15 14 14 14 14 11 9 12 12 11 8 3 3 5 11 7
1 5 7 8 10 11 10 11 11 11 13 12 12 12 12 12 13 13 14 13 13 13 14 14 13 13 13 13 13 14 14 15 15 12 10 11 13 8 12 12 11 10 7 3 5 4 5 4 8
-1 2 5 8 9 10 12 12 9 12 13 12 11 11 11 11 12 12 13 12 11 11 12 13 13 13 12 13 13 13 14 14 15 13 10 10 11 9 13 9 11 8 4 7 8 4 2 5 7
-2 1 4 7 7 11 9 11 7 11 12 11 10 11 11 11 11 12 12 11 11 11 12 12 13 13 12 12 13 13 13 14 14 13 9 11 10 10 13 11 9 6 8 9 7 4 5 7 8
-2 1 5 7 11 7 5 12 9 6 8 8 8 10 10 11 11 11 12 13 11 11 12 12 12 13 13 12 12 13 13 13 13 11 5 8 7 8 10 10 8 7 10 10 7 6 6 7 8
-1 -2 2 7 7 5 6 11 8 7 5 7 8 9 10 10 11 11 11 10 11 11 11 12 12 12 12 10 11 12 12 12 11 7 3 6 5 8 10 9 7 9 10 9 8 8 6 4 6
-1 0 -3 0 1 4 4 7 4 5 5 5 6 7 9 10 11 11 12 10 10 11 11 11 12 12 11 9 10 10 10 12 10 2 2 2 4 6 8 7 5 8 9 8 8 7 7 5 7
-4 -5 -2 -1 5 4 2 3 -0 4 4 5 5 6 7 9 11 11 12 11 10 10 10 11 12 12 9 5 8 10 8 10 10 10 2 -1 -6 2 2 2 6 8 7 7 6 4 6 8 10
-5 -3 -2 -2 0 4 3 1 2 3 3 2 2 3 4 8 10 11 12 11 9 9 10 11 11 12 12 6 4 8 9 11 9 3 5 -2 -3 -2 1 4 7 8 5 7 6 6 8 9 8
-11 -6 -4 -0 4 0 0 -0 -2 1 0 2 1 0 5 7 9 11 12 13 11 10 10 10 11 11 11 12 5 5 11 12 8 6 3 -1 -1 2 4 6 7 4 5 7 6 8 9 8 8

GFSSGP_850_dewp_024.txt.gz
Dewpoint
13 14 17 18 17 11 14 13 11 13 13 12 12 12 13 14 14 16 16 16 15 16 15 14 14 14 14 13 13 14 13 12 12 10 10 9 8 8 8 8 7 9 10 10 10 10 10 10 11
18 17 16 15 12 11 12 11 12 12 12 13 13 13 13 14 14 15 16 16 17 16 16 15 14 14 14 14 14 13 13 13 12 11 8 7 7 7 8 8 7 9 10 10 10 10 11 11 11
16 16 15 9 8 9 10 11 12 13 13 12 13 13 13 15 14 15 15 16 16 17 17 15 15 15 15 15 14 13 12 11 10 8 8 8 7 8 9 7 9 9 9 9 10 10 10 10 11
15 15 13 6 8 9 9 10 12 13 13 13 12 14 14 14 15 15 16 16 17 17 18 14 14 14 14 14 14 10 9 9 8 8 8 7 8 9 9 8 9 9 9 10 10 9 9 9 9
15 12 5 5 8 9 9 10 11 12 13 12 12 13 15 15 15 16 17 17 16 16 17 15 14 13 13 13 9 8 8 8 8 8 7 8 8 9 9 8 8 9 10 11 10 11 10 9 9
12 9 1 3 8 9 9 10 11 12 13 13 12 14 16 15 16 16 16 16 15 16 16 15 13 13 13 11 8 9 9 8 8 7 7 7 9 9 8 7 8 10 12 11 10 12 13 12 12
10 7 4 3 7 9 9 10 11 12 12 12 11 13 15 15 16 16 16 15 15 16 17 17 16 14 13 13 9 9 8 8 7 7 7 9 8 7 8 9 12 12 12 12 13 14 12 13 13
10 6 6 4 6 8 9 10 11 11 12 12 11 13 15 15 15 15 15 15 15 16 17 17 17 16 15 11 9 9 9 8 7 8 9 8 8 9 11 12 13 13 13 13 13 13 13 13 12
8 6 6 6 5 8 9 10 12 12 13 12 12 11 13 14 14 14 15 15 16 16 17 17 18 16 16 16 15 11 10 9 9 9 9 10 15 15 15 15 14 14 13 13 13 13 12 13 14
7 6 5 4 4 6 9 9 12 12 12 12 13 12 14 14 14 14 15 15 15 16 17 15 15 16 16 16 15 16 16 15 15 16 15 15 16 15 14 14 14 13 13 14 13 13 14 15 15
7 7 4 5 5 6 9 9 10 9 11 11 13 14 14 14 14 14 14 15 15 16 15 15 15 16 16 16 16 16 16 15 16 11 12 16 16 16 16 16 16 16 15 15 16 16 15 16 15
7 4 2 4 7 6 8 8 9 9 8 10 12 14 13 13 13 13 14 14 15 16 16 16 16 16 16 16 16 16 15 16 15 15 9 14 15 16 16 16 16 15 16 15 16 16 16 16 16
5 2 3 3 7 7 8 9 7 9 12 10 12 13 13 13 13 13 13 13 14 15 16 16 17 17 17 16 16 15 16 15 15 15 15 16 16 16 16 16 15 16 16 16 16 16 16 16 16
2 2 4 4 6 8 9 9 8 9 13 11 13 13 13 13 13 13 13 14 14 15 15 16 17 16 16 16 16 16 16 15 15 15 15 14 15 16 15 15 16 16 16 16 16 15 15 16 17
1 4 6 6 7 9 8 10 11 10 12 12 13 13 12 13 13 14 14 14 15 15 15 16 16 17 16 16 16 15 16 15 15 16 17 14 13 13 14 15 15 16 16 14 15 15 16 16 15
1 1 6 8 8 9 8 10 9 11 12 12 12 12 12 13 13 14 14 14 15 15 16 16 16 16 17 16 15 16 16 16 16 16 16 16 15 14 14 14 15 15 16 16 16 15 14 13 12
2 4 4 9 8 9 9 9 9 11 12 12 12 12 12 13 14 14 14 15 15 15 16 16 16 16 16 13 16 17 17 16 17 17 16 16 16 15 15 15 16 15 16 16 16 14 14 12 10
4 4 2 6 9 9 9 9 9 11 11 11 12 11 12 13 13 14 14 15 15 16 16 16 16 17 16 17 16 16 16 16 17 17 16 16 16 16 17 16 16 14 16 16 15 13 12 11 11
1 2 3 3 7 9 9 9 9 11 11 10 11 12 12 12 13 14 15 15 15 16 17 17 17 16 17 17 17 17 17 16 17 17 17 17 16 14 17 16 16 14 15 15 14 12 10 9 12
-1 2 2 4 8 8 8 9 8 8 11 11 10 11 12 12 13 14 14 15 15 16 17 17 17 16 15 17 17 17 17 16 16 17 17 16 17 16 16 16 16 15 14 13 15 13 9 10 12
1 3 2 5 8 8 7 9 8 7 9 11 11 10 11 12 12 13 14 14 15 16 17 17 15 14 14 15 17 17 17 17 17 16 16 16 16 16 15 15 15 13 13 12 13 12 12 9 11
2 0 2 4 8 10 8 8 6 7 9 10 11 10 10 11 12 12 13 14 15 15 16 17 14 14 14 14 17 17 16 15 14 15 14 15 16 16 15 10 12 13 13 12 11 11 7 8 10
-1 -2 1 3 7 7 8 10 6 6 8 9 10 10 9 9 10 10 11 12 13 14 15 17 15 13 14 15 15 17 16 15 15 15 16 12 15 15 15 13 10 8 11 11 4 5 6 11 11
-5 -2 1 2 4 8 6 8 7 6 9 7 7 9 8 8 8 8 9 10 12 13 14 15 16 13 13 13 13 14 16 17 15 16 16 14 13 14 11 13 11 11 10 9 9 5 3 4 9
-6 -1 6 7 7 8 5 6 6 2 1 4 3 7 8 8 7 8 9 9 10 12 13 14 16 12 13 13 12 11 12 16 17 17 17 13 12 13 12 12 11 11 7 7 9 7 12 10 12
-7 -2 3 8 6 6 4 6 5 3 2 1 0 3 6 9 9 8 9 10 11 12 13 15 14 12 12 13 12 11 11 17 17 17 15 14 11 12 14 8 11 9 6 7 8 11 12 12 12
-6 -1 -2 1 1 3 2 3 2 0 2 1 0 1 5 7 8 9 10 11 11 13 14 11 11 11 12 12 12 12 10 13 17 17 16 14 10 12 9 9 9 8 8 7 9 11 13 12 12
-7 -5 0 1 6 6 2 3 3 2 1 -1 -2 -0 1 4 7 9 9 10 12 12 14 14 10 10 11 12 12 11 11 12 14 13 12 13 2 3 2 5 4 3 7 7 7 12 12 12 11
-8 -4 -2 -1 0 4 4 2 -1 -1 -2 -3 -4 -4 -3 -0 5 8 9 10 11 13 13 15 14 10 11 11 12 9 9 12 11 11 10 7 3 -1 -2 -2 -1 4 7 7 7 8 10 12 12
-10 -5 -2 2 5 2 2 1 -4 -3 -3 -4 -5 -5 -5 -3 2 5 8 10 11 13 13 14 15 16 10 10 11 11 9 10 8 9 8 6 2 -3 -4 0 1 0 4 10 12 10 11 13 12

GFSSGP_850_dewp_030.txt.gz
Dewpoint
14 17 18 18 19 18 16 14 14 13 12 12 14 15 16 16 13 17 15 16 16 15 15 14 13 12 10 9 8 7 7 8 8 8 8 8 9 8 7 10 10 10 10 10 10 10 10 10 12
13 18 17 16 19 18 15 13 15 12 11 12 13 13 13 14 14 16 16 16 16 16 15 13 12 11 11 10 8 8 8 9 8 8 7 8 8 7 7 10 10 9 10 9 9 10 9 10 10
16 17 15 17 14 17 14 12 13 11 11 12 13 12 13 14 14 15 16 16 16 15 15 12 12 12 12 11 10 9 9 9 9 7 7 7 8 8 8 9 9 9 10 9 9 9 8 9 9
17 17 17 18 11 12 13 12 10 10 11 11 11 14 14 14 14 16 16 15 16 16 13 12 12 13 13 13 12 12 11 10 7 7 8 8 9 8 9 8 9 9 11 9 11 11 10 9 12
18 16 16 8 10 10 8 10 10 9 12 11 12 15 14 14 15 16 16 16 16 16 13 13 14 14 12 11 12 12 10 8 7 8 8 9 9 9 8 7 9 11 10 10 12 12 12 11 11
16 14 15 3 5 8 8 9 8 9 10 11 12 14 14 15 15 16 16 15 15 16 16 14 14 13 13 11 10 9 8 7 8 8 8 8 9 8 7 8 11 12 12 11 12 11 12 11 12
13 12 12 1 3 5 5 8 8 7 10 11 12 14 13 15 15 15 15 16 15 16 16 14 14 13 12 9 8 8 7 7 7 7 7 9 8 9 11 11 12 13 12 12 12 11 11 11 11
11 12 10 4 3 4 4 6 8 7 10 11 11 13 14 13 14 15 15 14 14 16 16 16 15 12 9 8 8 7 7 7 6 7 8 7 10 13 15 15 13 12 12 12 11 11 11 13 12
11 13 9 6 4 3 4 4 8 8 7 12 11 11 13 12 14 13 14 14 15 15 15 16 16 15 13 8 8 7 7 7 7 8 8 11 15 16 16 16 13 12 12 14 12 12 14 15 15
14 15 11 7 3 3 3 4 6 7 7 9 11 11 11 12 12 13 15 15 15 15 15 15 15 16 15 16 8 8 8 8 9 11 13 13 16 16 13 14 14 15 16 16 15 15 15 14 15
12 13 9 9 3 2 2 4 4 6 7 7 11 11 11 11 12 14 14 14 15 16 16 15 15 13 14 16 14 14 14 15 14 16 16 15 17 15 16 16 17 15 12 14 17 13 15 17 16
12 12 9 4 3 2 2 2 5 5 6 7 10 12 12 11 10 10 13 13 15 15 14 14 16 13 15 16 14 15 15 15 15 15 13 15 13 14 14 15 15 15 16 16 14 16 15 14 14
11 10 9 1 1 2 3 2 2 4 6 8 10 12 12 11 10 10 11 12 15 14 14 15 16 14 15 16 14 15 14 14 14 15 14 12 16 16 14 14 14 15 15 14 15 16 14 14 14
-3 5 3 0 1 3 4 2 1 3 5 8 10 11 11 11 11 10 11 12 13 14 13 14 15 15 13 16 15 14 14 15 14 15 15 14 13 17 16 16 15 15 15 16 15 14 13 14 14
-4 2 1 1 0 2 2 5 3 4 4 7 9 10 10 10 10 11 11 12 13 14 13 14 15 16 14 14 15 15 15 14 15 13 14 15 15 14 14 14 14 16 15 15 15 15 14 12 14
-5 -1 5 1 -0 1 2 12 4 6 3 7 8 9 9 9 10 11 11 12 13 14 14 15 15 16 17 16 17 15 14 15 14 14 15 15 15 15 14 15 16 16 15 16 16 15 14 13 13
-3 2 3 4 0 2 4 14 10 8 3 6 7 8 9 9 9 10 11 12 13 13 14 15 15 15 16 15 16 16 17 15 16 14 16 15 15 15 15 15 16 14 14 15 16 15 14 13 9
-2 1 1 6 3 2 11 14 10 7 6 5 6 7 8 9 9 10 11 11 12 13 14 15 15 15 16 16 15 17 15 15 15 16 16 15 16 15 15 15 15 16 15 15 16 15 13 10 10
-4 0 2 4 8 3 9 12 13 9 7 5 5 6 7 8 9 10 11 12 12 13 14 14 15 15 17 16 16 15 16 15 14 13 16 16 15 15 15 14 14 15 15 15 14 14 9 9 10
-3 -0 3 4 8 7 4 12 12 10 6 6 6 5 6 7 8 9 11 11 12 13 14 15 15 16 15 16 15 15 15 15 15 15 15 15 15 15 15 12 16 15 15 14 15 13 7 9 12
-3 -0 1 4 5 3 3 5 6 7 7 6 6 6 6 6 7 10 11 12 12 13 14 15 15 16 16 16 15 16 17 15 17 17 16 16 15 14 16 15 14 16 14 15 14 12 10 9 10
-2 -4 -1 2 5 7 3 7 8 6 9 7 6 6 7 6 6 7 10 12 12 13 14 15 15 16 16 14 17 15 15 16 14 13 13 13 15 15 14 13 15 15 12 14 12 10 6 6 10
-3 -4 -2 -1 3 6 8 9 7 7 8 8 6 6 6 7 7 7 9 11 12 13 15 15 16 16 16 13 17 17 16 14 14 13 14 14 14 13 16 16 15 14 14 12 11 11 4 11 10
-7 -4 -3 -2 -0 7 8 7 9 8 8 7 5 4 7 6 7 7 7 10 12 13 14 15 16 16 15 15 14 17 18 15 14 14 14 15 14 13 15 15 15 15 11 12 9 6 1 8 10
-9 -4 2 3 4 4 4 9 9 6 6 6 5 5 7 8 7 8 7 9 12 13 13 15 17 16 15 16 15 14 16 17 14 15 15 16 14 14 13 14 14 13 9 11 5 -0 11 2 6
-9 -6 1 7 5 4 1 5 8 6 5 6 6 6 5 6 7 8 8 8 10 12 13 14 16 16 16 14 16 14 13 15 15 14 17 15 15 13 13 13 12 10 7 7 -2 -7 -2 3 9
-10 -5 -7 -1 -0 2 1 1 1 3 4 7 6 3 3 5 6 7 9 9 9 11 12 13 14 16 16 15 14 15 12 13 13 13 16 16 14 13 12 12 12 3 3 2 4 4 5 6 10
-11 -10 -5 -4 5 7 3 4 5 8 7 4 5 3 2 2 6 7 7 9 9 10 12 13 13 14 15 15 13 12 12 12 13 13 15 15 16 14 12 12 11 4 2 3 5 3 6 7 7
-10 -10 -9 -6 -2 3 5 4 1 4 7 6 4 1 1 -2 3 6 7 7 8 9 11 12 13 14 15 15 13 12 12 13 12 14 14 16 15 16 12 12 11 2 0 2 7 4 5 11 9
-10 -7 -8 -3 4 -0 1 2 -4 4 4 4 2 0 -0 -2 -3 -0 6 7 8 9 10 12 13 14 15 15 14 11 12 13 13 11 14 14 15 15 15 12 7 4 -1 1 7 3 6 11 6

GFSSGP_850_dewp_033.txt.gz
Dewpoint
15 16 17 16 18 18 17 14 15 14 15 15 14 14 15 16 14 16 15 15 14 15 15 14 13 12 11 11 7 6 7 8 8 7 7 7 7 8 9 9 9 9 9 9 10 9 10 10 12
15 17 17 16 18 18 16 14 15 13 14 13 13 14 14 15 15 15 16 15 15 14 14 13 12 10 9 8 6 6 7 8 8 7 7 7 6 7 9 9 9 9 9 9 9 9 9 9 10
13 17 13 17 18 18 17 14 13 13 13 13 13 13 14 15 15 15 15 15 14 13 13 12 10 9 8 7 7 7 8 8 8 6 6 7 7 8 9 8 9 10 10 10 10 8 8 10 10
16 17 17 19 17 15 13 13 12 13 13 13 14 14 14 15 15 15 16 16 14 13 12 11 11 11 10 8 8 8 8 8 7 6 6 8 8 9 7 8 9 11 10 11 12 12 10 11 11
17 17 18 18 14 12 12 11 11 12 14 14 14 15 15 14 15 16 16 16 14 12 12 12 12 12 12 10 11 10 9 7 6 6 8 8 8 7 7 8 11 11 11 12 12 11 11 11 12
18 16 19 16 11 11 9 11 11 12 14 14 15 15 15 15 15 15 15 15 13 12 12 12 13 13 13 12 12 10 7 6 7 7 8 8 7 9 10 10 11 12 11 12 11 12 12 12 12
17 18 17 14 9 10 9 10 11 12 13 14 14 15 16 16 15 16 14 15 14 13 13 13 13 11 11 10 9 7 6 7 7 7 8 7 9 13 15 13 13 12 12 11 11 10 12 12 12
16 16 16 8 6 11 8 8 10 11 13 14 13 16 15 15 14 16 16 15 14 13 14 13 12 11 9 8 7 6 6 6 6 6 8 8 15 15 15 14 12 12 13 12 12 12 14 14 14
11 16 16 11 5 5 7 9 10 12 13 13 13 15 15 15 14 15 16 16 16 13 12 13 12 9 7 7 6 6 6 6 6 8 8 15 15 15 14 15 14 15 14 14 13 14 14 13 15
13 16 13 7 7 4 8 9 10 12 13 13 13 14 15 14 12 15 15 16 16 15 13 12 12 8 7 7 6 6 6 6 7 8 10 15 15 15 16 15 15 16 13 14 15 13 15 14 14
13 14 9 7 7 6 4 6 7 10 12 12 13 13 15 15 14 15 15 15 15 14 16 13 12 10 9 7 9 7 9 10 11 11 11 15 16 16 16 14 10 14 15 15 14 15 14 15 15
11 11 8 8 6 7 4 4 6 7 10 12 12 13 14 13 13 12 13 15 14 15 15 15 13 14 14 14 14 11 13 13 13 15 14 11 14 15 16 15 14 16 15 14 14 15 13 15 14
9 8 5 5 6 6 3 5 6 7 11 12 11 11 13 12 12 14 13 14 15 14 15 15 13 14 15 15 14 14 15 14 14 15 15 14 13 15 14 14 14 15 15 15 15 14 14 13 14
9 7 4 4 7 5 2 2 6 8 11 11 11 11 11 12 13 14 14 15 15 13 15 15 14 13 14 16 15 15 15 15 15 15 15 14 14 13 15 14 14 14 15 16 15 14 14 13 13
-1 8 6 4 4 4 3 3 5 8 10 12 12 12 12 11 10 11 13 14 14 13 14 15 15 15 13 16 15 14 14 15 14 14 13 14 15 13 12 14 14 16 16 15 15 15 13 12 13
-4 -4 -2 3 1 3 4 10 4 6 10 11 12 12 12 11 10 10 12 12 13 12 15 15 15 15 14 14 15 13 14 15 14 14 15 15 15 14 15 14 13 14 15 14 14 14 14 13 13
-5 -2 -2 5 1 3 8 11 7 5 9 10 11 11 11 11 11 11 11 12 13 13 13 14 14 15 14 13 13 14 13 13 15 14 14 15 15 14 14 14 15 14 15 14 14 15 14 13 7
-3 -2 -3 5 4 7 9 10 6 7 7 9 10 10 10 10 10 11 11 12 12 13 14 14 15 15 15 15 14 13 14 15 16 15 16 14 15 14 15 14 14 14 15 15 15 15 14 7 9
-5 -3 -2 2 6 10 11 10 7 5 6 7 9 9 9 9 9 10 11 12 12 13 14 14 14 15 15 16 16 14 14 14 15 13 15 16 16 15 15 14 15 13 16 14 13 12 12 9 9
-6 -4 -2 7 6 6 10 10 9 7 7 7 7 8 9 9 9 10 10 11 12 12 13 13 14 15 15 16 16 15 13 14 13 13 14 14 15 14 14 13 14 14 15 15 13 13 5 10 11
-6 -4 -2 8 7 7 7 11 11 5 6 7 7 8 8 8 9 9 10 11 11 12 13 13 14 14 15 16 16 16 14 14 14 15 16 15 14 15 14 14 13 14 14 14 14 13 5 10 10
-5 -6 -3 6 8 11 7 14 12 9 9 8 8 6 7 8 8 9 10 11 12 12 12 13 14 15 15 15 16 15 15 18 16 16 15 14 14 15 13 14 13 13 14 13 14 12 -5 7 11
-6 -5 -3 -3 7 8 8 11 12 11 12 10 7 6 6 7 7 9 9 10 11 12 12 13 14 14 14 15 15 14 15 16 16 15 13 14 16 16 14 14 13 14 13 12 12 9 -4 2 10
-11 -6 -4 -3 1 11 7 11 9 8 11 9 7 6 6 6 7 7 9 10 11 12 12 12 13 14 14 14 14 14 15 15 14 13 14 14 14 14 13 14 15 14 11 14 10 9 -2 -6 6
-12 -10 -2 1 2 5 8 9 9 5 6 8 7 6 6 7 7 7 9 11 11 12 12 12 13 14 14 14 12 13 16 16 14 15 15 14 14 15 12 13 16 11 12 10 4 -1 -4 -3 0
-12 -12 -4 3 4 3 2 10 8 5 5 6 6 6 6 7 7 7 7 9 11 12 12 13 14 14 14 15 13 11 16 16 15 16 16 16 15 15 12 12 11 12 12 3 1 -1 -2 -2 -0
-9 -9 -10 -4 -1 3 2 1 5 5 7 7 5 4 4 5 7 8 7 7 10 11 12 13 14 14 14 15 15 12 11 15 15 14 15 16 16 15 14 13 12 9 4 3 -0 -2 -2 2 6
-12 -10 -8 -7 -2 2 1 3 6 7 8 7 6 6 6 5 6 10 8 7 8 10 11 12 13 13 14 14 15 15 11 12 13 13 14 14 16 15 15 14 12 12 10 1 -1 0 2 4 4
-8 -10 -10 -7 -5 -1 3 2 1 6 7 8 7 6 5 5 6 8 8 8 7 9 11 12 13 13 15 14 14 15 14 10 12 13 12 12 16 16 14 14 13 12 11 7 -2 3 4 3 6
-9 -10 -9 -5 -0 0 -3 -2 -2 2 6 6 6 5 5 5 6 6 8 8 9 8 11 12 12 13 13 14 14 14 14 13 11 12 12 11 11 15 16 16 14 12 12 5 -2 4 5 3 8